ELY360 LLBG-LIMF

Flight info

Callsign ELY360
Flight time 3h 56m
Altitude 36000
Route SUVAS N128 OTHON UN128 RDS UL609 MES UG18 FSK UL608 DISOR DCT LONTA UL608 DOLEV DCT IPKIS DCT BAXON DCT BOA DCT TODNO DCT LURUT DCT LUPOS DCT GEN
Aircraft B738/M-VGDW/C

Departure

Time 2026-05-08 10:16
Airport Ben Gurion International Airport (LLBG)

Arrival

Time 2026-05-08 14:13
Airport Turin Airport (LIMF)
Time Latitude Longitude Altitude Speed Heading
2026-05-08 09:56 32.00085 34.87445 143 ft 0 kts 344°
2026-05-08 10:05 32.00081 34.87447 143 ft 2 kts 344°
2026-05-08 10:05 32.00062 34.87452 143 ft 3 kts 351°
2026-05-08 10:06 32.00042 34.87455 143 ft 3 kts 359°
2026-05-08 10:06 32.00026 34.87455 143 ft 3 kts 354°
2026-05-08 10:06 32.00009 34.87460 143 ft 3 kts 320°
2026-05-08 10:06 32.00001 34.87473 143 ft 3 kts 261°
2026-05-08 10:07 32.00008 34.87493 143 ft 3 kts 231°
2026-05-08 10:07 32.00022 34.87510 143 ft 3 kts 216°
2026-05-08 10:07 32.00027 34.87515 143 ft 0 kts 212°
2026-05-08 10:09 32.00013 34.87504 143 ft 8 kts 212°
2026-05-08 10:09 31.99959 34.87494 143 ft 8 kts 148°
2026-05-08 10:10 31.99951 34.87552 143 ft 8 kts 53°
2026-05-08 10:10 31.99999 34.87594 143 ft 11 kts 32°
2026-05-08 10:10 32.00085 34.87656 143 ft 17 kts 31°
2026-05-08 10:10 32.00186 34.87729 143 ft 17 kts 31°
2026-05-08 10:11 32.00282 34.87798 143 ft 16 kts 31°
2026-05-08 10:11 32.00373 34.87863 143 ft 15 kts 31°
2026-05-08 10:11 32.00457 34.87924 143 ft 14 kts 31°
2026-05-08 10:11 32.00540 34.87946 143 ft 13 kts 322°
2026-05-08 10:12 32.00620 34.87940 143 ft 11 kts 31°
2026-05-08 10:12 32.00650 34.87962 143 ft 3 kts 31°
2026-05-08 10:12 32.00697 34.87996 143 ft 13 kts 31°
2026-05-08 10:12 32.00801 34.88072 143 ft 21 kts 31°
2026-05-08 10:13 32.00937 34.88169 143 ft 23 kts 31°
2026-05-08 10:13 32.01070 34.88263 143 ft 22 kts 31°
2026-05-08 10:13 32.01196 34.88353 143 ft 21 kts 31°
2026-05-08 10:13 32.01309 34.88452 143 ft 20 kts 43°
2026-05-08 10:14 32.01397 34.88572 143 ft 19 kts 56°
2026-05-08 10:14 32.01460 34.88703 143 ft 18 kts 67°
2026-05-08 10:14 32.01497 34.88840 143 ft 17 kts 79°
2026-05-08 10:14 32.01517 34.88973 143 ft 16 kts 81°
2026-05-08 10:15 32.01536 34.89099 143 ft 15 kts 78°
2026-05-08 10:15 32.01606 34.89160 143 ft 14 kts 349°
2026-05-08 10:15 32.01700 34.89139 143 ft 13 kts 349°
2026-05-08 10:15 32.01740 34.89054 143 ft 18 kts 260°
2026-05-08 10:16 32.01682 34.88677 143 ft 79 kts 260°
2026-05-08 10:16 32.01549 34.87805 143 ft 136 kts 259°
2026-05-08 10:16 32.01348 34.86551 397 ft 165 kts 260°
2026-05-08 10:16 32.01103 34.85238 1223 ft 162 kts 257°
2026-05-08 10:17 32.00773 34.83951 1883 ft 171 kts 257°
2026-05-08 10:17 32.00481 34.82542 2460 ft 179 kts 260°
2026-05-08 10:17 32.00219 34.81088 3082 ft 185 kts 260°
2026-05-08 10:17 31.99921 34.79543 3577 ft 201 kts 259°
2026-05-08 10:18 31.99584 34.77840 3866 ft 226 kts 258°
2026-05-08 10:18 31.99285 34.75926 4221 ft 247 kts 269°
2026-05-08 10:18 31.99461 34.73887 4702 ft 263 kts 284°
2026-05-08 10:18 31.99937 34.71750 5303 ft 275 kts 286°
2026-05-08 10:19 32.00457 34.69549 6075 ft 281 kts 287°
2026-05-08 10:19 32.00987 34.67313 6883 ft 285 kts 286°
2026-05-08 10:19 32.01522 34.65053 7684 ft 288 kts 286°
2026-05-08 10:20 32.02613 34.60431 9246 ft 294 kts 286°
2026-05-08 10:20 32.03152 34.58135 10018 ft 295 kts 286°
2026-05-08 10:20 32.03704 34.55788 10748 ft 300 kts 286°
2026-05-08 10:20 32.04272 34.53371 11215 ft 314 kts 286°
2026-05-08 10:21 32.04869 34.50827 11528 ft 331 kts 286°
2026-05-08 10:21 32.05499 34.48138 11796 ft 349 kts 286°
2026-05-08 10:21 32.06156 34.45333 12223 ft 359 kts 286°
2026-05-08 10:21 32.06825 34.42476 12863 ft 363 kts 286°
2026-05-08 10:22 32.07498 34.39599 13526 ft 365 kts 286°
2026-05-08 10:22 32.08175 34.36702 14196 ft 368 kts 286°
2026-05-08 10:22 32.08880 34.33800 14847 ft 370 kts 287°
2026-05-08 10:22 32.09590 34.30874 15486 ft 372 kts 286°
2026-05-08 10:23 32.10289 34.27930 16113 ft 374 kts 286°
2026-05-08 10:23 32.10987 34.24960 16723 ft 377 kts 286°
2026-05-08 10:23 32.11684 34.21968 17318 ft 379 kts 286°
2026-05-08 10:23 32.12382 34.18958 17895 ft 381 kts 286°
2026-05-08 10:24 32.13083 34.15934 18452 ft 384 kts 286°
2026-05-08 10:24 32.13789 34.12882 18997 ft 387 kts 286°
2026-05-08 10:24 32.14499 34.09809 19533 ft 389 kts 286°
2026-05-08 10:24 32.15215 34.06711 20043 ft 393 kts 286°
2026-05-08 10:25 32.15938 34.03597 20559 ft 395 kts 287°
2026-05-08 10:25 32.16865 34.00539 21056 ft 397 kts 294°
2026-05-08 10:25 32.18112 33.97635 21543 ft 398 kts 301°
2026-05-08 10:25 32.19589 33.94858 21999 ft 400 kts 304°
2026-05-08 10:26 32.21175 33.92148 22440 ft 403 kts 306°
2026-05-08 10:26 32.22811 33.89448 22889 ft 405 kts 306°
2026-05-08 10:26 32.24452 33.86734 23316 ft 407 kts 306°
2026-05-08 10:26 32.26098 33.84004 23746 ft 409 kts 306°
2026-05-08 10:27 32.27747 33.81260 24173 ft 410 kts 306°
2026-05-08 10:27 32.29400 33.78505 24618 ft 411 kts 306°
2026-05-08 10:27 32.31052 33.75747 25054 ft 412 kts 306°
2026-05-08 10:27 32.32708 33.72979 25485 ft 412 kts 307°
2026-05-08 10:28 32.34363 33.70209 25902 ft 413 kts 307°
2026-05-08 10:28 32.35999 33.67470 26286 ft 414 kts 307°
2026-05-08 10:28 32.37665 33.64698 26702 ft 413 kts 308°
2026-05-08 10:28 32.39338 33.61934 27089 ft 414 kts 308°
2026-05-08 10:29 32.41007 33.59165 27473 ft 414 kts 308°
2026-05-08 10:29 32.42677 33.56382 27818 ft 414 kts 308°
2026-05-08 10:29 32.44344 33.53599 28209 ft 414 kts 308°
2026-05-08 10:29 32.46002 33.50815 28562 ft 414 kts 308°
2026-05-08 10:30 32.47666 33.48029 28861 ft 415 kts 308°
2026-05-08 10:30 32.49336 33.45233 29130 ft 417 kts 309°
2026-05-08 10:30 32.51007 33.42431 29443 ft 417 kts 309°
2026-05-08 10:30 32.52673 33.39637 29925 ft 413 kts 309°
2026-05-08 10:31 32.54316 33.36875 30431 ft 408 kts 309°
2026-05-08 10:31 32.55946 33.34135 30888 ft 405 kts 309°
2026-05-08 10:31 32.57559 33.31419 31356 ft 401 kts 309°
2026-05-08 10:31 32.59158 33.28725 31779 ft 398 kts 309°
2026-05-08 10:32 32.60745 33.26048 32163 ft 396 kts 309°
2026-05-08 10:32 32.62324 33.23382 32581 ft 393 kts 309°
2026-05-08 10:32 32.63887 33.20743 32957 ft 390 kts 309°
2026-05-08 10:32 32.65446 33.18107 33305 ft 389 kts 309°
2026-05-08 10:33 32.66993 33.15490 33679 ft 386 kts 309°
2026-05-08 10:33 32.68530 33.12889 34052 ft 383 kts 309°
2026-05-08 10:33 32.70055 33.10306 34378 ft 382 kts 309°
2026-05-08 10:33 32.71582 33.07716 34585 ft 383 kts 309°
2026-05-08 10:34 32.73111 33.05123 34841 ft 383 kts 309°
2026-05-08 10:34 32.74639 33.02530 35109 ft 383 kts 309°
2026-05-08 10:34 32.76166 32.99938 35334 ft 383 kts 309°
2026-05-08 10:34 32.77692 32.97343 35561 ft 383 kts 309°
2026-05-08 10:35 32.79217 32.94747 35827 ft 383 kts 309°
2026-05-08 10:35 32.80721 32.92188 36060 ft 382 kts 308°
2026-05-08 10:35 32.82267 32.89553 36115 ft 385 kts 308°
2026-05-08 10:36 32.85354 32.84289 36126 ft 390 kts 308°
2026-05-08 10:36 32.88426 32.79043 36127 ft 388 kts 308°
2026-05-08 10:37 32.91500 32.73786 36127 ft 387 kts 308°
2026-05-08 10:37 32.94575 32.68520 36127 ft 388 kts 308°
2026-05-08 10:38 32.97649 32.63249 36127 ft 387 kts 308°
2026-05-08 10:38 33.00722 32.57972 36128 ft 387 kts 308°
2026-05-08 10:39 33.03790 32.52695 36128 ft 387 kts 308°
2026-05-08 10:39 33.06854 32.47417 36128 ft 387 kts 308°
2026-05-08 10:40 33.09917 32.42136 36127 ft 386 kts 308°
2026-05-08 10:40 33.12455 32.37753 36126 ft 386 kts 308°
2026-05-08 10:41 33.15506 32.32476 36127 ft 386 kts 308°
2026-05-08 10:41 33.18556 32.27194 36124 ft 386 kts 308°
2026-05-08 10:42 33.21604 32.21910 36138 ft 386 kts 308°
2026-05-08 10:42 33.24646 32.16626 36145 ft 386 kts 308°
2026-05-08 10:43 33.27679 32.11351 36146 ft 385 kts 308°
2026-05-08 10:43 33.30730 32.06086 36146 ft 385 kts 308°
2026-05-08 10:44 33.33759 32.00807 36145 ft 385 kts 307°
2026-05-08 10:44 33.36782 31.95513 36146 ft 386 kts 307°
2026-05-08 10:45 33.39803 31.90212 36146 ft 386 kts 307°
2026-05-08 10:45 33.42823 31.84909 36146 ft 386 kts 307°
2026-05-08 10:46 33.45845 31.79602 36146 ft 386 kts 307°
2026-05-08 10:46 33.48863 31.74294 36146 ft 386 kts 307°
2026-05-08 10:47 33.51878 31.68981 36146 ft 386 kts 307°
2026-05-08 10:47 33.54888 31.63662 36146 ft 385 kts 307°
2026-05-08 10:48 33.57894 31.58342 36146 ft 385 kts 307°
2026-05-08 10:48 33.60877 31.53053 36146 ft 385 kts 307°
2026-05-08 10:49 33.63899 31.47690 36146 ft 385 kts 307°
2026-05-08 10:49 33.66896 31.42402 36146 ft 386 kts 307°
2026-05-08 10:50 33.69921 31.37075 36146 ft 386 kts 307°
2026-05-08 10:50 33.72933 31.31738 36146 ft 386 kts 307°
2026-05-08 10:51 33.75940 31.26392 36146 ft 386 kts 307°
2026-05-08 10:51 33.78959 31.21051 36146 ft 387 kts 307°
2026-05-08 10:52 33.81972 31.15690 36146 ft 387 kts 306°
2026-05-08 10:52 33.84972 31.10316 36146 ft 388 kts 306°
2026-05-08 10:53 33.87971 31.04929 36146 ft 387 kts 306°
2026-05-08 10:53 33.90972 30.99533 36146 ft 388 kts 306°
2026-05-08 10:54 33.93974 30.94134 36146 ft 388 kts 306°
2026-05-08 10:54 33.96975 30.88729 36146 ft 388 kts 306°
2026-05-08 10:55 33.99978 30.83311 36147 ft 389 kts 306°
2026-05-08 10:55 34.02964 30.77908 36149 ft 386 kts 306°
2026-05-08 10:56 34.05939 30.72516 36154 ft 387 kts 306°
2026-05-08 10:56 34.08918 30.67107 36155 ft 387 kts 305°
2026-05-08 10:57 34.11896 30.61691 36156 ft 387 kts 305°
2026-05-08 10:57 34.16382 30.53584 36157 ft 387 kts 306°
2026-05-08 10:58 34.19355 30.48210 36157 ft 388 kts 305°
2026-05-08 10:58 34.22342 30.42780 36158 ft 388 kts 305°
2026-05-08 10:59 34.25324 30.37344 36158 ft 388 kts 305°
2026-05-08 10:59 34.28305 30.31913 36159 ft 388 kts 305°
2026-05-08 11:00 34.31297 30.26480 36160 ft 388 kts 305°
2026-05-08 11:00 34.34267 30.21032 36160 ft 388 kts 305°
2026-05-08 11:01 34.37229 30.15578 36161 ft 388 kts 305°
2026-05-08 11:01 34.40191 30.10116 36162 ft 388 kts 305°
2026-05-08 11:02 34.44644 30.01936 36162 ft 387 kts 307°
2026-05-08 11:03 34.48151 29.96987 36164 ft 388 kts 314°
2026-05-08 11:03 34.51922 29.92314 36166 ft 387 kts 314°
2026-05-08 11:04 34.55690 29.87653 36172 ft 387 kts 314°
2026-05-08 11:04 34.59458 29.82989 36172 ft 387 kts 314°
2026-05-08 11:05 34.63226 29.78320 36165 ft 387 kts 314°
2026-05-08 11:05 34.66994 29.73645 36159 ft 387 kts 314°
2026-05-08 11:06 34.70766 29.68981 36159 ft 387 kts 314°
2026-05-08 11:06 34.74537 29.64334 36160 ft 386 kts 314°
2026-05-08 11:07 34.78286 29.59710 36165 ft 386 kts 314°
2026-05-08 11:07 34.82068 29.55022 36166 ft 385 kts 314°
2026-05-08 11:08 34.85811 29.50352 36167 ft 385 kts 313°
2026-05-08 11:08 34.89551 29.45673 36168 ft 385 kts 313°
2026-05-08 11:09 34.93263 29.41022 36168 ft 385 kts 313°
2026-05-08 11:09 34.97000 29.36340 36169 ft 385 kts 313°
2026-05-08 11:10 35.00983 29.31957 36170 ft 387 kts 320°
2026-05-08 11:10 35.05280 29.28005 36171 ft 387 kts 321°
2026-05-08 11:11 35.09578 29.24075 36172 ft 386 kts 321°
2026-05-08 11:11 35.13876 29.20138 36172 ft 386 kts 321°
2026-05-08 11:12 35.18173 29.16197 36173 ft 386 kts 320°
2026-05-08 11:12 35.22470 29.12250 36175 ft 386 kts 320°
2026-05-08 11:13 35.26765 29.08302 36178 ft 386 kts 321°
2026-05-08 11:13 35.31077 29.04377 36178 ft 386 kts 321°
2026-05-08 11:14 35.35379 29.00436 36179 ft 386 kts 320°
2026-05-08 11:14 35.39675 28.96486 36181 ft 386 kts 320°
2026-05-08 11:15 35.43973 28.92526 36183 ft 386 kts 320°
2026-05-08 11:15 35.48257 28.88571 36183 ft 385 kts 320°
2026-05-08 11:16 35.52544 28.84608 36175 ft 385 kts 320°
2026-05-08 11:16 35.56828 28.80642 36182 ft 386 kts 320°
2026-05-08 11:17 35.61082 28.76698 36184 ft 386 kts 320°
2026-05-08 11:17 35.65366 28.72722 36186 ft 386 kts 320°
2026-05-08 11:18 35.69648 28.68741 36186 ft 386 kts 320°
2026-05-08 11:18 35.73958 28.64728 36186 ft 386 kts 320°
2026-05-08 11:19 35.78215 28.60780 36185 ft 385 kts 320°
2026-05-08 11:19 35.82520 28.56771 36185 ft 385 kts 320°
2026-05-08 11:20 35.86763 28.52798 36184 ft 386 kts 319°
2026-05-08 11:20 35.91030 28.48794 36183 ft 386 kts 319°
2026-05-08 11:21 35.95298 28.44783 36182 ft 386 kts 319°
2026-05-08 11:21 35.99568 28.40770 36182 ft 386 kts 319°
2026-05-08 11:22 36.03835 28.36766 36181 ft 385 kts 319°
2026-05-08 11:22 36.08088 28.32746 36179 ft 385 kts 319°
2026-05-08 11:23 36.12360 28.28745 36178 ft 385 kts 319°
2026-05-08 11:23 36.16615 28.24724 36177 ft 385 kts 319°
2026-05-08 11:24 36.20869 28.20690 36175 ft 386 kts 319°
2026-05-08 11:24 36.25129 28.16642 36174 ft 386 kts 319°
2026-05-08 11:25 36.29378 28.12600 36173 ft 385 kts 319°
2026-05-08 11:25 36.33626 28.08555 36172 ft 385 kts 318°
2026-05-08 11:26 36.37632 28.04185 36171 ft 383 kts 314°
2026-05-08 11:26 36.41496 27.99629 36171 ft 383 kts 314°
2026-05-08 11:27 36.45383 27.95080 36172 ft 385 kts 314°
2026-05-08 11:27 36.49285 27.90529 36174 ft 385 kts 314°
2026-05-08 11:28 36.53163 27.86012 36176 ft 385 kts 314°
2026-05-08 11:28 36.57069 27.81459 36178 ft 385 kts 314°
2026-05-08 11:29 36.60990 27.76918 36180 ft 385 kts 314°
2026-05-08 11:29 36.64917 27.72381 36183 ft 386 kts 314°
2026-05-08 11:30 36.68843 27.67819 36185 ft 386 kts 314°
2026-05-08 11:30 36.72767 27.63244 36190 ft 386 kts 313°
2026-05-08 11:31 36.76687 27.58664 36193 ft 386 kts 313°
2026-05-08 11:31 36.79946 27.54850 36194 ft 387 kts 313°
2026-05-08 11:32 36.83866 27.50257 36196 ft 386 kts 313°
2026-05-08 11:32 36.87778 27.45665 36197 ft 386 kts 313°
2026-05-08 11:33 36.91688 27.41068 36198 ft 386 kts 313°
2026-05-08 11:33 36.95600 27.36463 36199 ft 387 kts 313°
2026-05-08 11:34 36.99510 27.31852 36199 ft 386 kts 313°
2026-05-08 11:34 37.03423 27.27231 36199 ft 387 kts 313°
2026-05-08 11:35 37.07334 27.22606 36199 ft 387 kts 313°
2026-05-08 11:35 37.11245 27.17974 36199 ft 387 kts 312°
2026-05-08 11:36 37.15157 27.13334 36201 ft 387 kts 312°
2026-05-08 11:36 37.19080 27.08706 36199 ft 387 kts 312°
2026-05-08 11:37 37.22996 27.04054 36200 ft 388 kts 312°
2026-05-08 11:37 37.26903 26.99390 36196 ft 388 kts 312°
2026-05-08 11:38 37.30805 26.94720 36195 ft 388 kts 312°
2026-05-08 11:38 37.34712 26.90039 36196 ft 388 kts 312°
2026-05-08 11:39 37.38621 26.85355 36198 ft 389 kts 311°
2026-05-08 11:39 37.42592 26.80796 36198 ft 390 kts 314°
2026-05-08 11:40 37.46763 26.76415 36199 ft 391 kts 315°
2026-05-08 11:40 37.50905 26.71978 36199 ft 391 kts 314°
2026-05-08 11:41 37.55029 26.67514 36199 ft 390 kts 314°
2026-05-08 11:41 37.59141 26.63047 36199 ft 391 kts 314°
2026-05-08 11:42 37.63264 26.58561 36198 ft 392 kts 314°
2026-05-08 11:42 37.67394 26.54068 36197 ft 392 kts 313°
2026-05-08 11:43 37.71532 26.49586 36192 ft 392 kts 314°
2026-05-08 11:43 37.75668 26.45093 36191 ft 393 kts 313°
2026-05-08 11:44 37.79802 26.40584 36189 ft 393 kts 313°
2026-05-08 11:44 37.83940 26.36063 36187 ft 393 kts 313°
2026-05-08 11:45 37.88074 26.31550 36185 ft 393 kts 313°
2026-05-08 11:45 37.92212 26.27027 36183 ft 393 kts 313°
2026-05-08 11:46 37.96341 26.22484 36181 ft 393 kts 313°
2026-05-08 11:46 38.00430 26.17975 36179 ft 393 kts 313°
2026-05-08 11:47 38.04556 26.13423 36177 ft 393 kts 313°
2026-05-08 11:47 38.08671 26.08866 36175 ft 393 kts 313°
2026-05-08 11:48 38.12802 26.04322 36174 ft 393 kts 312°
2026-05-08 11:48 38.16917 25.99753 36173 ft 393 kts 312°
2026-05-08 11:49 38.21065 25.95141 36174 ft 399 kts 313°
2026-05-08 11:49 38.25241 25.90497 36175 ft 399 kts 313°
2026-05-08 11:50 38.29676 25.86167 36172 ft 402 kts 316°
2026-05-08 11:50 38.34099 25.81905 36171 ft 396 kts 316°
2026-05-08 11:51 38.38479 25.77642 36172 ft 397 kts 316°
2026-05-08 11:51 38.42867 25.73350 36172 ft 398 kts 315°
2026-05-08 11:52 38.47262 25.69046 36171 ft 398 kts 315°
2026-05-08 11:52 38.51654 25.64741 36170 ft 398 kts 315°
2026-05-08 11:53 38.56056 25.60415 36170 ft 400 kts 315°
2026-05-08 11:53 38.60459 25.56078 36169 ft 400 kts 315°
2026-05-08 11:54 38.64873 25.51724 36168 ft 401 kts 315°
2026-05-08 11:54 38.69289 25.47362 36168 ft 401 kts 315°
2026-05-08 11:55 38.73724 25.43001 36166 ft 403 kts 315°
2026-05-08 11:55 38.78178 25.38628 36164 ft 403 kts 315°
2026-05-08 11:56 38.82625 25.34236 36162 ft 404 kts 315°
2026-05-08 11:56 38.87069 25.29833 36157 ft 403 kts 315°
2026-05-08 11:57 38.91517 25.25417 36155 ft 405 kts 315°
2026-05-08 11:57 38.95942 25.21022 36147 ft 405 kts 315°
2026-05-08 11:58 39.00410 25.16600 36136 ft 406 kts 315°
2026-05-08 11:58 39.04871 25.12145 36129 ft 406 kts 315°
2026-05-08 11:59 39.11554 25.05444 36124 ft 407 kts 315°
2026-05-08 11:59 39.16018 25.00959 36122 ft 407 kts 315°
2026-05-08 12:00 39.20489 24.96467 36118 ft 408 kts 314°
2026-05-08 12:00 39.24968 24.91970 36115 ft 409 kts 315°
2026-05-08 12:01 39.29465 24.87475 36114 ft 409 kts 314°
2026-05-08 12:01 39.33947 24.82950 36113 ft 409 kts 314°
2026-05-08 12:02 39.38433 24.78406 36112 ft 410 kts 314°
2026-05-08 12:02 39.42921 24.73851 36111 ft 410 kts 314°
2026-05-08 12:03 39.47414 24.69292 36111 ft 411 kts 314°
2026-05-08 12:03 39.51920 24.64708 36212 ft 413 kts 314°
2026-05-08 12:04 39.54183 24.62405 36440 ft 414 kts 314°
2026-05-08 12:04 39.56410 24.60134 36726 ft 412 kts 314°
2026-05-08 12:04 39.58664 24.57832 36964 ft 412 kts 314°
2026-05-08 12:04 39.60940 24.55504 37221 ft 412 kts 314°
2026-05-08 12:05 39.63161 24.53230 37419 ft 412 kts 314°
2026-05-08 12:05 39.65416 24.50919 37590 ft 413 kts 314°
2026-05-08 12:05 39.67699 24.48577 37816 ft 413 kts 314°
2026-05-08 12:05 39.69953 24.46262 38011 ft 414 kts 314°
2026-05-08 12:06 39.74452 24.41636 38100 ft 416 kts 314°
2026-05-08 12:06 39.79006 24.36981 38107 ft 416 kts 315°
2026-05-08 12:07 39.83557 24.32338 38107 ft 416 kts 315°
2026-05-08 12:07 39.88112 24.27664 38107 ft 417 kts 314°
2026-05-08 12:08 39.92665 24.22974 38106 ft 417 kts 315°
2026-05-08 12:08 39.97216 24.18274 38105 ft 418 kts 314°
2026-05-08 12:09 40.01775 24.13558 38105 ft 418 kts 314°
2026-05-08 12:09 40.06330 24.08834 38105 ft 418 kts 314°
2026-05-08 12:10 40.10884 24.04104 38106 ft 418 kts 314°
2026-05-08 12:10 40.15399 23.99406 38106 ft 418 kts 314°
2026-05-08 12:11 40.19978 23.94632 38106 ft 418 kts 314°
2026-05-08 12:11 40.24526 23.89883 38107 ft 418 kts 314°
2026-05-08 12:12 40.29074 23.85125 38107 ft 419 kts 314°
2026-05-08 12:12 40.33599 23.80383 38108 ft 419 kts 314°
2026-05-08 12:13 40.38159 23.75597 38108 ft 420 kts 314°
2026-05-08 12:13 40.42718 23.70802 38109 ft 421 kts 314°
2026-05-08 12:14 40.47285 23.65989 38109 ft 421 kts 314°
2026-05-08 12:14 40.51860 23.61161 38109 ft 423 kts 314°
2026-05-08 12:15 40.56443 23.56313 38111 ft 423 kts 314°
2026-05-08 12:15 40.61024 23.51460 38111 ft 424 kts 314°
2026-05-08 12:16 40.65621 23.46594 38109 ft 424 kts 315°
2026-05-08 12:16 40.70232 23.41720 38110 ft 425 kts 314°
2026-05-08 12:17 40.74862 23.36781 38109 ft 431 kts 315°
2026-05-08 12:17 40.79540 23.31774 38109 ft 434 kts 315°
2026-05-08 12:18 40.84188 23.26791 38109 ft 433 kts 315°
2026-05-08 12:18 40.88869 23.21772 38108 ft 434 kts 315°
2026-05-08 12:19 40.93559 23.16756 38107 ft 434 kts 315°
2026-05-08 12:19 40.98254 23.11709 38106 ft 435 kts 315°
2026-05-08 12:20 41.02942 23.06645 38104 ft 435 kts 315°
2026-05-08 12:20 41.07628 23.01580 38104 ft 435 kts 315°
2026-05-08 12:21 41.11911 22.96004 38102 ft 430 kts 306°
2026-05-08 12:21 41.15769 22.89955 38101 ft 429 kts 305°
2026-05-08 12:22 41.19612 22.83890 38099 ft 430 kts 305°
2026-05-08 12:22 41.22812 22.78845 38097 ft 430 kts 305°
2026-05-08 12:23 41.26704 22.72796 38095 ft 432 kts 307°
2026-05-08 12:23 41.30775 22.66900 38093 ft 433 kts 307°
2026-05-08 12:24 41.34836 22.60976 38091 ft 433 kts 307°
2026-05-08 12:24 41.38891 22.55019 38088 ft 435 kts 307°
2026-05-08 12:25 41.42948 22.49034 38086 ft 435 kts 307°
2026-05-08 12:25 41.47001 22.43042 38083 ft 436 kts 307°
2026-05-08 12:26 41.51097 22.37057 38080 ft 437 kts 307°
2026-05-08 12:26 41.55181 22.31056 38077 ft 437 kts 307°
2026-05-08 12:27 41.59256 22.25030 38074 ft 438 kts 307°
2026-05-08 12:27 41.63309 22.19017 38071 ft 438 kts 307°
2026-05-08 12:28 41.67392 22.12948 38070 ft 442 kts 307°
2026-05-08 12:28 41.71507 22.06801 38065 ft 445 kts 307°
2026-05-08 12:29 41.75637 22.00634 38058 ft 444 kts 307°
2026-05-08 12:29 41.79756 21.94465 38058 ft 445 kts 307°
2026-05-08 12:30 41.83889 21.88264 38058 ft 447 kts 307°
2026-05-08 12:30 41.88034 21.82036 38051 ft 448 kts 307°
2026-05-08 12:31 41.92165 21.75814 38058 ft 445 kts 307°
2026-05-08 12:31 41.96282 21.69632 38053 ft 442 kts 308°
2026-05-08 12:32 42.00366 21.63468 38056 ft 443 kts 307°
2026-05-08 12:32 42.04472 21.57233 38056 ft 448 kts 307°
2026-05-08 12:33 42.08603 21.50928 38055 ft 448 kts 307°
2026-05-08 12:33 42.12716 21.44647 38055 ft 446 kts 307°
2026-05-08 12:34 42.16788 21.38412 38054 ft 441 kts 306°
2026-05-08 12:34 42.20761 21.32096 38061 ft 442 kts 306°
2026-05-08 12:35 42.24754 21.25737 38067 ft 446 kts 306°
2026-05-08 12:35 42.28748 21.19352 38068 ft 443 kts 306°
2026-05-08 12:36 42.32672 21.13070 38071 ft 438 kts 306°
2026-05-08 12:36 42.36626 21.06728 38076 ft 440 kts 306°
2026-05-08 12:37 42.40601 21.00417 38077 ft 440 kts 306°
2026-05-08 12:37 42.44540 20.94148 38078 ft 440 kts 306°
2026-05-08 12:38 42.48491 20.87816 38078 ft 440 kts 306°
2026-05-08 12:38 42.52436 20.81468 38078 ft 440 kts 306°
2026-05-08 12:39 42.56375 20.75113 38073 ft 440 kts 306°
2026-05-08 12:39 42.60308 20.68752 38071 ft 440 kts 306°
2026-05-08 12:40 42.64258 20.62393 38067 ft 441 kts 306°
2026-05-08 12:40 42.68203 20.56012 38064 ft 440 kts 306°
2026-05-08 12:41 42.72122 20.49615 38061 ft 440 kts 306°
2026-05-08 12:41 42.76034 20.43208 38058 ft 440 kts 306°
2026-05-08 12:42 42.79943 20.36799 38053 ft 440 kts 306°
2026-05-08 12:42 42.83376 20.29980 38048 ft 434 kts 294°
2026-05-08 12:43 42.85850 20.22510 38044 ft 432 kts 288°
2026-05-08 12:43 42.88034 20.14891 38040 ft 431 kts 288°
2026-05-08 12:44 42.90200 20.07260 38037 ft 432 kts 288°
2026-05-08 12:44 42.92345 19.99670 38034 ft 431 kts 287°
2026-05-08 12:45 42.94510 19.91980 38031 ft 432 kts 287°
2026-05-08 12:45 42.96686 19.84339 38029 ft 432 kts 288°
2026-05-08 12:46 42.98886 19.76713 38027 ft 432 kts 288°
2026-05-08 12:46 43.01060 19.69074 38026 ft 432 kts 288°
2026-05-08 12:47 43.03205 19.61473 38025 ft 431 kts 287°
2026-05-08 12:47 43.05355 19.53813 38024 ft 431 kts 287°
2026-05-08 12:48 43.07498 19.46148 38024 ft 431 kts 287°
2026-05-08 12:48 43.09634 19.38482 38024 ft 431 kts 287°
2026-05-08 12:49 43.11763 19.30811 38018 ft 431 kts 287°
2026-05-08 12:49 43.13890 19.23128 38017 ft 431 kts 287°
2026-05-08 12:50 43.16008 19.15449 38021 ft 431 kts 287°
2026-05-08 12:50 43.18123 19.07759 38022 ft 431 kts 287°
2026-05-08 12:51 43.21285 18.96216 38025 ft 431 kts 287°
2026-05-08 12:52 43.23389 18.88504 38027 ft 431 kts 287°
2026-05-08 12:52 43.26532 18.76942 38034 ft 431 kts 287°
2026-05-08 12:53 43.28619 18.69233 38043 ft 431 kts 287°
2026-05-08 12:53 43.30699 18.61522 38033 ft 430 kts 287°
2026-05-08 12:54 43.32772 18.53816 38026 ft 430 kts 287°
2026-05-08 12:54 43.34842 18.46096 38024 ft 430 kts 287°
2026-05-08 12:55 43.36906 18.38374 38022 ft 431 kts 287°
2026-05-08 12:55 43.38968 18.30638 38020 ft 431 kts 287°
2026-05-08 12:56 43.41021 18.22906 38019 ft 431 kts 287°
2026-05-08 12:56 43.43055 18.15224 38016 ft 430 kts 286°
2026-05-08 12:57 43.45096 18.07487 38012 ft 430 kts 286°
2026-05-08 12:57 43.47133 17.99742 38010 ft 430 kts 286°
2026-05-08 12:58 43.49162 17.92004 38008 ft 430 kts 286°
2026-05-08 12:58 43.51188 17.84250 38008 ft 430 kts 286°
2026-05-08 12:59 43.53209 17.76492 38008 ft 430 kts 286°
2026-05-08 12:59 43.55222 17.68738 38009 ft 430 kts 286°
2026-05-08 13:00 43.57230 17.60978 38012 ft 430 kts 286°
2026-05-08 13:00 43.59233 17.53212 38014 ft 430 kts 286°
2026-05-08 13:01 43.61229 17.45448 38015 ft 429 kts 286°
2026-05-08 13:01 43.63222 17.37671 38017 ft 430 kts 286°
2026-05-08 13:02 43.65210 17.29886 38019 ft 430 kts 286°
2026-05-08 13:02 43.67191 17.22102 38018 ft 430 kts 286°
2026-05-08 13:03 43.69166 17.14319 38019 ft 429 kts 286°
2026-05-08 13:03 43.71135 17.06532 38020 ft 429 kts 286°
2026-05-08 13:04 43.73098 16.98740 38018 ft 429 kts 286°
2026-05-08 13:04 43.75055 16.90950 38020 ft 429 kts 286°
2026-05-08 13:05 43.77006 16.83155 38021 ft 429 kts 285°
2026-05-08 13:05 43.78952 16.75353 38022 ft 429 kts 285°
2026-05-08 13:06 43.80894 16.67545 38022 ft 429 kts 285°
2026-05-08 13:06 43.82827 16.59741 38022 ft 429 kts 285°
2026-05-08 13:07 43.84756 16.51932 38023 ft 428 kts 285°
2026-05-08 13:07 43.86679 16.44119 38023 ft 429 kts 285°
2026-05-08 13:08 43.88599 16.36291 38023 ft 429 kts 285°
2026-05-08 13:08 43.90511 16.28468 38024 ft 429 kts 285°
2026-05-08 13:09 43.92419 16.20632 38026 ft 429 kts 285°
2026-05-08 13:09 43.94311 16.12839 38026 ft 429 kts 285°
2026-05-08 13:10 43.96208 16.04998 38025 ft 429 kts 285°
2026-05-08 13:10 43.98101 15.97144 38025 ft 429 kts 285°
2026-05-08 13:11 43.99988 15.89290 38025 ft 429 kts 285°
2026-05-08 13:11 44.01869 15.81434 38026 ft 429 kts 285°
2026-05-08 13:12 44.03745 15.73569 38025 ft 429 kts 285°
2026-05-08 13:12 44.05310 15.66987 38024 ft 428 kts 285°
2026-05-08 13:13 44.07174 15.59126 38024 ft 428 kts 285°
2026-05-08 13:13 44.09028 15.51276 38024 ft 427 kts 284°
2026-05-08 13:14 44.10877 15.43419 38024 ft 427 kts 284°
2026-05-08 13:14 44.12721 15.35559 38023 ft 427 kts 284°
2026-05-08 13:15 44.14554 15.27712 38024 ft 426 kts 284°
2026-05-08 13:15 44.16383 15.19858 38025 ft 426 kts 284°
2026-05-08 13:16 44.18206 15.12004 38026 ft 426 kts 284°
2026-05-08 13:16 44.20021 15.04154 38027 ft 426 kts 284°
2026-05-08 13:17 44.21829 14.96307 38025 ft 425 kts 284°
2026-05-08 13:17 44.23632 14.88451 38026 ft 425 kts 284°
2026-05-08 13:18 44.25429 14.80594 38026 ft 425 kts 284°
2026-05-08 13:18 44.27209 14.72800 38026 ft 424 kts 284°
2026-05-08 13:19 44.29031 14.64959 38026 ft 425 kts 284°
2026-05-08 13:19 44.30807 14.57092 38026 ft 425 kts 284°
2026-05-08 13:20 44.32567 14.49222 38025 ft 424 kts 284°
2026-05-08 13:20 44.34320 14.41354 38025 ft 424 kts 284°
2026-05-08 13:21 44.36061 14.33470 38027 ft 424 kts 282°
2026-05-08 13:21 44.37093 14.25418 38028 ft 420 kts 273°
2026-05-08 13:22 44.37596 14.17288 38029 ft 420 kts 272°
2026-05-08 13:22 44.38064 14.09151 38030 ft 420 kts 272°
2026-05-08 13:23 44.38529 14.01019 38033 ft 420 kts 272°
2026-05-08 13:23 44.38990 13.92888 38035 ft 420 kts 272°
2026-05-08 13:24 44.39528 13.84764 38045 ft 420 kts 272°
2026-05-08 13:24 44.40008 13.76627 38050 ft 420 kts 272°
2026-05-08 13:25 44.40454 13.68492 38050 ft 420 kts 271°
2026-05-08 13:25 44.40891 13.60356 38050 ft 419 kts 271°
2026-05-08 13:26 44.41324 13.52236 38050 ft 419 kts 271°
2026-05-08 13:26 44.41760 13.44170 38051 ft 419 kts 272°
2026-05-08 13:27 44.42282 13.36047 38051 ft 419 kts 272°
2026-05-08 13:27 44.42789 13.27928 38053 ft 419 kts 272°
2026-05-08 13:28 44.43285 13.19808 38053 ft 419 kts 272°
2026-05-08 13:28 44.43773 13.11690 38053 ft 419 kts 272°
2026-05-08 13:29 44.44255 13.03571 38053 ft 419 kts 272°
2026-05-08 13:29 44.44758 12.95455 38053 ft 419 kts 273°
2026-05-08 13:30 44.45292 12.87334 38053 ft 419 kts 272°
2026-05-08 13:30 44.45793 12.79220 38053 ft 419 kts 272°
2026-05-08 13:31 44.46278 12.71102 38053 ft 418 kts 272°
2026-05-08 13:31 44.46753 12.62987 38053 ft 418 kts 272°
2026-05-08 13:32 44.47220 12.54870 38053 ft 418 kts 272°
2026-05-08 13:32 44.47681 12.46754 38053 ft 418 kts 272°
2026-05-08 13:33 44.48135 12.38639 38053 ft 418 kts 272°
2026-05-08 13:33 44.48583 12.30521 38053 ft 418 kts 272°
2026-05-08 13:34 44.49026 12.22412 38053 ft 418 kts 272°
2026-05-08 13:34 44.49460 12.14348 38053 ft 418 kts 272°
2026-05-08 13:35 44.49890 12.06235 38053 ft 418 kts 272°
2026-05-08 13:35 44.50315 11.98118 38051 ft 418 kts 272°
2026-05-08 13:36 44.50735 11.90007 38049 ft 417 kts 272°
2026-05-08 13:36 44.51148 11.81890 38048 ft 418 kts 272°
2026-05-08 13:37 44.51561 11.73779 38048 ft 418 kts 272°
2026-05-08 13:37 44.52003 11.65666 38052 ft 418 kts 272°
2026-05-08 13:38 44.52395 11.57543 38053 ft 418 kts 271°
2026-05-08 13:38 44.52772 11.49420 38053 ft 418 kts 271°
2026-05-08 13:39 44.53143 11.41300 38053 ft 418 kts 271°
2026-05-08 13:39 44.53514 11.33174 38053 ft 418 kts 271°
2026-05-08 13:40 44.53578 11.25056 38054 ft 416 kts 265°
2026-05-08 13:40 44.53200 11.16961 38056 ft 416 kts 265°
2026-05-08 13:41 44.52842 11.08920 38061 ft 415 kts 265°
2026-05-08 13:41 44.52476 11.00845 38069 ft 416 kts 265°
2026-05-08 13:42 44.52130 10.92744 38080 ft 416 kts 265°
2026-05-08 13:42 44.51764 10.84652 38090 ft 416 kts 265°
2026-05-08 13:43 44.51375 10.76576 38096 ft 415 kts 265°
2026-05-08 13:43 44.50979 10.68506 38102 ft 415 kts 265°
2026-05-08 13:44 44.50583 10.60442 38099 ft 415 kts 265°
2026-05-08 13:44 44.50195 10.52438 38095 ft 414 kts 265°
2026-05-08 13:45 44.49794 10.44343 38090 ft 414 kts 265°
2026-05-08 13:45 44.49390 10.36354 38083 ft 414 kts 265°
2026-05-08 13:46 44.48977 10.28316 38077 ft 414 kts 265°
2026-05-08 13:46 44.48558 10.20279 38070 ft 414 kts 265°
2026-05-08 13:47 44.48132 10.12207 37637 ft 416 kts 265°
2026-05-08 13:47 44.47935 10.08180 37041 ft 415 kts 265°
2026-05-08 13:47 44.47756 10.04152 36374 ft 415 kts 265°
2026-05-08 13:48 44.47565 10.00117 35693 ft 416 kts 265°
2026-05-08 13:48 44.47364 9.96069 34996 ft 417 kts 265°
2026-05-08 13:48 44.47158 9.92009 34360 ft 417 kts 265°
2026-05-08 13:48 44.46948 9.87979 33841 ft 413 kts 264°
2026-05-08 13:49 44.46738 9.83991 33334 ft 410 kts 264°
2026-05-08 13:49 44.46527 9.80030 32834 ft 406 kts 264°
2026-05-08 13:49 44.46316 9.76104 32342 ft 403 kts 264°
2026-05-08 13:49 44.46104 9.72202 31855 ft 400 kts 263°
2026-05-08 13:50 44.45893 9.68336 31374 ft 397 kts 263°
2026-05-08 13:50 44.45682 9.64494 30898 ft 394 kts 263°
2026-05-08 13:50 44.45472 9.60687 30431 ft 392 kts 263°
2026-05-08 13:50 44.45261 9.56898 29970 ft 389 kts 262°
2026-05-08 13:51 44.45053 9.53138 29516 ft 387 kts 263°
2026-05-08 13:51 44.44869 9.49392 29062 ft 384 kts 263°
2026-05-08 13:51 44.44671 9.45676 28610 ft 382 kts 263°
2026-05-08 13:51 44.44463 9.41978 28158 ft 379 kts 263°
2026-05-08 13:52 44.44251 9.38315 27709 ft 377 kts 263°
2026-05-08 13:52 44.44035 9.34667 27262 ft 375 kts 263°
2026-05-08 13:52 44.43819 9.31048 26816 ft 372 kts 263°
2026-05-08 13:52 44.43603 9.27454 26372 ft 370 kts 263°
2026-05-08 13:53 44.43386 9.23870 25927 ft 368 kts 263°
2026-05-08 13:53 44.43171 9.20310 25484 ft 366 kts 263°
2026-05-08 13:53 44.42957 9.16774 25041 ft 364 kts 263°
2026-05-08 13:53 44.42746 9.13294 24606 ft 362 kts 264°
2026-05-08 13:54 44.42677 9.09734 24159 ft 362 kts 270°
2026-05-08 13:54 44.42933 9.06234 23721 ft 361 kts 277°
2026-05-08 13:54 44.43412 9.02792 23279 ft 360 kts 280°
2026-05-08 13:54 44.43981 8.99426 22843 ft 359 kts 282°
2026-05-08 13:55 44.44580 8.96042 22405 ft 358 kts 282°
2026-05-08 13:55 44.45175 8.92673 21969 ft 356 kts 282°
2026-05-08 13:55 44.46349 8.85971 21101 ft 353 kts 282°
2026-05-08 13:56 44.46929 8.82644 20670 ft 351 kts 282°
2026-05-08 13:56 44.47506 8.79323 20239 ft 350 kts 282°
2026-05-08 13:56 44.48080 8.76019 19812 ft 349 kts 282°
2026-05-08 13:56 44.48652 8.72726 19387 ft 347 kts 282°
2026-05-08 13:57 44.49218 8.69455 18964 ft 346 kts 282°
2026-05-08 13:57 44.49784 8.66186 18542 ft 344 kts 282°
2026-05-08 13:57 44.50368 8.62945 18125 ft 343 kts 284°
2026-05-08 13:57 44.50973 8.59721 17708 ft 341 kts 283°
2026-05-08 13:58 44.51553 8.56503 17294 ft 340 kts 283°
2026-05-08 13:58 44.52117 8.53294 16881 ft 339 kts 283°
2026-05-08 13:58 44.52671 8.50098 16470 ft 337 kts 283°
2026-05-08 13:58 44.53218 8.46905 16060 ft 336 kts 283°
2026-05-08 13:59 44.53759 8.43735 15651 ft 335 kts 283°
2026-05-08 13:59 44.54297 8.40568 15240 ft 333 kts 283°
2026-05-08 13:59 44.54833 8.37408 14833 ft 332 kts 283°
2026-05-08 13:59 44.55365 8.34265 14430 ft 331 kts 283°
2026-05-08 14:00 44.55896 8.31132 14029 ft 330 kts 283°
2026-05-08 14:00 44.56424 8.28011 13637 ft 328 kts 283°
2026-05-08 14:00 44.56946 8.24929 13491 ft 319 kts 283°
2026-05-08 14:00 44.57578 8.21996 13322 ft 311 kts 292°
2026-05-08 14:01 44.58605 8.19358 13088 ft 307 kts 303°
2026-05-08 14:01 44.59890 8.16975 12742 ft 306 kts 309°
2026-05-08 14:01 44.61293 8.14735 12416 ft 305 kts 311°
2026-05-08 14:01 44.62704 8.12522 12087 ft 304 kts 311°
2026-05-08 14:02 44.64088 8.10303 11782 ft 302 kts 310°
2026-05-08 14:02 44.65446 8.08109 11676 ft 292 kts 310°
2026-05-08 14:02 44.66740 8.06017 11596 ft 283 kts 310°
2026-05-08 14:02 44.68011 8.03957 11411 ft 277 kts 311°
2026-05-08 14:03 44.69281 8.01918 11124 ft 276 kts 311°
2026-05-08 14:03 44.70538 7.99888 10836 ft 275 kts 311°
2026-05-08 14:03 44.71787 7.97864 10546 ft 274 kts 310°
2026-05-08 14:03 44.73033 7.95844 10257 ft 273 kts 310°
2026-05-08 14:04 44.73875 7.94478 10059 ft 273 kts 311°
2026-05-08 14:04 44.75120 7.92459 9762 ft 273 kts 311°
2026-05-08 14:04 44.76369 7.90457 9541 ft 270 kts 313°
2026-05-08 14:04 44.77686 7.88636 9381 ft 267 kts 317°
2026-05-08 14:05 44.79084 7.86868 8994 ft 270 kts 318°
2026-05-08 14:05 44.80483 7.85118 8590 ft 274 kts 319°
2026-05-08 14:05 44.81907 7.83334 8285 ft 274 kts 318°
2026-05-08 14:05 44.83329 7.81551 8019 ft 274 kts 319°
2026-05-08 14:06 44.84746 7.79755 7726 ft 273 kts 318°
2026-05-08 14:06 44.86154 7.77971 7420 ft 272 kts 318°
2026-05-08 14:06 44.87562 7.76186 7115 ft 272 kts 319°
2026-05-08 14:06 44.88966 7.74406 6858 ft 270 kts 318°
2026-05-08 14:07 44.90352 7.72645 6603 ft 268 kts 318°
2026-05-08 14:07 44.91733 7.70891 6319 ft 266 kts 318°
2026-05-08 14:07 44.93085 7.69173 5999 ft 256 kts 318°
2026-05-08 14:07 44.94382 7.67527 5674 ft 244 kts 318°
2026-05-08 14:08 44.95609 7.65971 5417 ft 231 kts 318°
2026-05-08 14:08 44.96778 7.64498 5186 ft 219 kts 322°
2026-05-08 14:08 44.98125 7.63704 4987 ft 208 kts 352°
2026-05-08 14:08 44.99546 7.63616 4733 ft 202 kts
2026-05-08 14:09 45.00992 7.63716 4480 ft 215 kts
2026-05-08 14:09 45.02524 7.63838 4175 ft 224 kts
2026-05-08 14:09 45.04069 7.63948 3878 ft 218 kts
2026-05-08 14:09 45.05537 7.64044 3581 ft 204 kts
2026-05-08 14:10 45.06910 7.64132 3324 ft 194 kts
2026-05-08 14:10 45.08226 7.64215 3065 ft 186 kts
2026-05-08 14:10 45.09503 7.64296 2816 ft 180 kts
2026-05-08 14:10 45.10718 7.64373 2602 ft 169 kts
2026-05-08 14:11 45.11863 7.64446 2374 ft 162 kts
2026-05-08 14:11 45.12967 7.64516 2158 ft 156 kts
2026-05-08 14:11 45.14034 7.64584 1949 ft 152 kts
2026-05-08 14:11 45.15081 7.64652 1751 ft 150 kts
2026-05-08 14:12 45.16136 7.64725 1538 ft 153 kts
2026-05-08 14:12 45.17194 7.64782 1361 ft 152 kts
2026-05-08 14:12 45.18249 7.64845 1151 ft 152 kts
2026-05-08 14:12 45.19299 7.64914 1003 ft 146 kts 360°
2026-05-08 14:13 45.20158 7.64967 997 ft 90 kts
2026-05-08 14:13 45.20558 7.64992 997 ft 31 kts
2026-05-08 14:13 45.20739 7.65005 997 ft 25 kts
2026-05-08 14:13 45.20869 7.64928 997 ft 21 kts 296°
2026-05-08 14:14 45.20840 7.64761 997 ft 18 kts 213°
2026-05-08 14:14 45.20721 7.64736 997 ft 17 kts 182°
2026-05-08 14:14 45.20606 7.64729 997 ft 16 kts 182°
2026-05-08 14:14 45.20498 7.64722 997 ft 15 kts 182°
2026-05-08 14:15 45.20396 7.64715 997 ft 14 kts 182°
2026-05-08 14:15 45.20294 7.64709 997 ft 18 kts 182°
2026-05-08 14:15 45.20151 7.64699 997 ft 21 kts 183°
2026-05-08 14:15 45.20011 7.64691 997 ft 20 kts 182°
2026-05-08 14:16 45.19877 7.64682 997 ft 19 kts 183°
2026-05-08 14:16 45.19751 7.64695 997 ft 18 kts 167°
2026-05-08 14:16 45.19632 7.64690 997 ft 17 kts 183°
2026-05-08 14:16 45.19518 7.64683 997 ft 16 kts 182°
2026-05-08 14:17 45.19411 7.64677 997 ft 15 kts 182°
2026-05-08 14:17 45.19309 7.64670 997 ft 14 kts 182°
2026-05-08 14:17 45.19237 7.64640 997 ft 9 kts 249°
2026-05-08 14:17 45.19222 7.64552 997 ft 9 kts 257°
2026-05-08 14:18 45.19219 7.64528 997 ft 0 kts 257°
2026-05-08 14:18 45.19218 7.64528 997 ft 0 kts 257°